GPS BIIRM-5 (PRN 29)

Last updated on Sun Dec 14 2025 00:03:18 GMT+0000 (Coordinated Universal Time)

1 32384U 07062A 25347.31008889 -.00000080 00000+0 00000+0 0 9990 2 32384 55.1816 281.6230 0032237 162.4378 10.5516 2.00577339131782
UTC large
Height (km)
Speed (km/s)
/
Latitude / Longitude
Inclination (degrees)
Orbital Period (minutes)
Azimuth
Elevation
Range (km)
Doppler Factor

Next 0 passes for location: London (51.5072 / 0.1276)

Sorry there are no passes over London.